This is the latest recevied weather packets stored in our database for station/object KM4CNW. If no packets are shown the sender has not sent any weather packets the latest 10 day(s).
| Time | Temp. | Humidity | Pressure | Rain* | Wind** | Luminosity | Snow |
|---|---|---|---|---|---|---|---|
| 1777482594 | 21.11° C | 74% | 1005.9 hPa | 0 mm | - | 183 W/m² | - |
| 1777482292 | 21.11° C | 74% | 1005.8 hPa | 0 mm | - | 230 W/m² | - |
| 1777481989 | 20.56° C | 77% | 1006 hPa | 0 mm | - | 771 W/m² | - |
| 1777481687 | 20.56° C | 77% | 1006 hPa | 0 mm | - | 265 W/m² | - |
| 1777481384 | 20.56° C | 77% | 1006.2 hPa | 0 mm | - | 196 W/m² | - |
| 1777481080 | 20° C | 80% | 1006.1 hPa | 0 mm | - | 257 W/m² | - |
| 1777480777 | 19.44° C | 80% | 1006.2 hPa | 0 mm | - | 193 W/m² | - |
| 1777480473 | 19.44° C | 81% | 1006.3 hPa | 0 mm | - | 170 W/m² | - |
| 1777480169 | 19.44° C | 82% | 1006.6 hPa | 0 mm | - | 139 W/m² | - |
| 1777479866 | 19.44° C | 82% | 1006.6 hPa | 0 mm | - | 196 W/m² | - |
| 1777479563 | 18.89° C | 82% | 1006.6 hPa | 0 mm | - | 169 W/m² | - |
| 1777479261 | 18.89° C | 83% | 1006.7 hPa | 0 mm | - | 141 W/m² | - |
| 1777478957 | 18.33° C | 86% | 1006.9 hPa | 0 mm | - | 218 W/m² | - |
| 1777478654 | 18.33° C | 86% | 1006.7 hPa | 0 mm | - | 148 W/m² | - |
| 1777478350 | 17.78° C | 88% | 1006.7 hPa | 0 mm | - | 114 W/m² | - |
| 1777478047 | 17.78° C | 88% | 1006.8 hPa | 0 mm | - | 60 W/m² | - |
| 1777477743 | 17.78° C | 88% | 1006.8 hPa | 0 mm | - | 104 W/m² | - |
| 1777477439 | 17.78° C | 89% | 1007 hPa | 0 mm | - | 113 W/m² | - |
| 1777477136 | 17.78° C | 89% | 1006.8 hPa | 0 mm | - | 93 W/m² | - |
| 1777476832 | 17.78° C | 89% | 1006.9 hPa | 0 mm | - | 63 W/m² | - |
| 1777476530 | 17.22° C | 90% | 1006.9 hPa | 0 mm | - | 78 W/m² | - |
| 1777476226 | 17.22° C | 90% | 1006.9 hPa | 0 mm | - | 80 W/m² | - |
| 1777475922 | 17.22° C | 91% | 1006.8 hPa | 0 mm | - | 69 W/m² | - |
| 1777475618 | 17.22° C | 91% | 1006.9 hPa | 0 mm | - | 65 W/m² | - |
| 1777475315 | 17.22° C | 91% | 1007 hPa | 0 mm | - | 71 W/m² | - |
* Rain latest hour (hover to see other rain measurements)
** Current wind speed in m/s (hover to see current wind gust speed)